Starlink 3209

operational
NORAD ID: 49752 Int'l Des: 2021-115 Owner: SPXS Country: US Constellation: starlink
LEOCIRCULAR

Starlink 3209について

説明を読み込み中...

リアルタイム位置

3D地球を読み込み中...

次回通過

高度履歴

Altitude vs Time

uPlot chart will show altitude changes over time

軌道要素

1 49752U 21115AE 25306.49606873 .00000345 00000-0 39760-4 0 9997
2 49752 53.2181 350.1252 0001311 90.8115 269.3027 15.08838195216474
Epoch: Nov 2, 2025 • Age: 32 hours

現在のステータス

高度 541.7 km
速度 7.60 km/s
衛星直下点 35.51°N, 144.33°E
打ち上げ日 Dec 2, 2021
運用期間 3.9 years
タイプ internet

技術仕様

分類 Payload
質量 290.00 kg
乾燥質量 270.00 kg
総質量 290.00 kg
長さ 0.20 m
直径 2.80 m
スパン 9.00 m
形状 Box + pan
製造者 SPXS
バスタイプ Starlink
フェーズステータス In Orbit
所有者/国 SPXS/US

大規模コンステレーション

Loading constellations...